This is the latest recevied weather packets stored in our database for station/object KA6UPU-1. If no packets are shown the sender has not sent any weather packets the latest 1 day(s).
| Time | Temp. | Humidity | Pressure | Rain* | Wind** | Luminosity | Snow |
|---|---|---|---|---|---|---|---|
| 1778015589 | 17.78° C | 72% | 1015.1 hPa | 0 mm | 0.89 m/s, 280° | - | - |
| 1778015289 | 17.78° C | 72% | 1015.2 hPa | 0 mm | 1.34 m/s, 319° | - | - |
| 1778014989 | 17.22° C | 74% | 1015.2 hPa | 0 mm | 0.89 m/s, 336° | - | - |
| 1778014089 | 17.22° C | 73% | 1015.3 hPa | 0 mm | 0.89 m/s, 339° | - | - |
| 1778013489 | 17.22° C | 72% | 1015.3 hPa | 0 mm | 1.34 m/s, 254° | - | - |
| 1778013189 | 17.22° C | 73% | 1015.3 hPa | 0 mm | 0.89 m/s, 267° | - | - |
| 1778012889 | 17.22° C | 75% | 1015.3 hPa | 0 mm | 1.79 m/s, 279° | - | - |
| 1778012289 | 17.22° C | 75% | 1015.4 hPa | 0 mm | 0.89 m/s, 266° | - | - |
| 1778011989 | 16.67° C | 77% | 1015.4 hPa | 0 mm | 0.89 m/s, 304° | - | - |
| 1778011691 | 16.11° C | 76% | 1015.5 hPa | 0 mm | 0.89 m/s, 321° | - | - |
| 1778011390 | 16.11° C | 77% | 1015.6 hPa | 0 mm | 1.34 m/s, 317° | - | - |
| 1778011089 | 16.11° C | 76% | 1015.6 hPa | 0 mm | 1.79 m/s, 334° | - | - |
| 1778010789 | 16.11° C | 77% | 1015.5 hPa | 0 mm | 1.79 m/s, 352° | - | - |
| 1778010489 | 16.11° C | 77% | 1015.6 hPa | 0 mm | 1.79 m/s, 341° | - | - |
| 1778009926 | 16.11° C | 77% | 1015.5 hPa | 0 mm | 0.45 m/s, 16° | - | - |
| 1778009626 | 16.11° C | 77% | 1015.6 hPa | 0 mm | 0 m/s | - | - |
| 1778009326 | 16.11° C | 77% | 1015.5 hPa | 0 mm | 0.45 m/s, 303° | - | - |
| 1778009026 | 16.11° C | 77% | 1015.6 hPa | 0 mm | 0.89 m/s, 319° | - | - |
| 1778008726 | 16.11° C | 77% | 1015.6 hPa | 0 mm | 0 m/s | - | - |
| 1778008426 | 16.11° C | 77% | 1015.6 hPa | 0 mm | 0.45 m/s, 315° | - | - |
| 1778008126 | 16.11° C | 77% | 1015.6 hPa | 0 mm | 0 m/s | - | - |
| 1778007826 | 16.11° C | 78% | 1015.6 hPa | 0 mm | 0.45 m/s, 297° | - | - |
| 1778007526 | 15.56° C | 79% | 1015.5 hPa | 0 mm | 0.45 m/s, 301° | - | - |
| 1778007226 | 15.56° C | 80% | 1015.5 hPa | 0 mm | 0 m/s | - | - |
| 1778006926 | 15° C | 80% | 1015.5 hPa | 0 mm | 0.45 m/s, 26° | - | - |
* Rain latest hour (hover to see other rain measurements)
** Current wind speed in m/s (hover to see current wind gust speed)